TimeCST,TemperatureF,Dew PointF,Humidity,Sea Level PressureIn,VisibilityMPH,Wind Direction,Wind SpeedMPH,Gust SpeedMPH,PrecipitationIn,Events,Conditions,WindDirDegrees,DateUTC
12:15 AM,26.6,26.6,100,29.41,10.0,NW,11.5,-,N/A,,Overcast,320,2013-02-19 06:15:00
12:35 AM,26.6,26.6,100,29.42,5.0,NW,11.5,17.3,N/A,,Overcast,320,2013-02-19 06:35:00
12:55 AM,26.6,26.6,100,29.41,4.0,NNW,12.7,-,N/A,Snow,Light Snow,330,2013-02-19 06:55:00
1:15 AM,26.6,26.6,100,29.41,3.0,NNW,13.8,21.9,N/A,Snow,Light Snow,340,2013-02-19 07:15:00
3:15 AM,19.4,17.6,93,29.45,1.0,NNW,17.3,25.3,N/A,Snow,Snow,340,2013-02-19 09:15:00
3:35 AM,19.4,17.6,93,29.46,1.0,NNW,12.7,23.0,N/A,Snow,Snow,340,2013-02-19 09:35:00
3:55 AM,19.4,15.8,86,29.46,1.0,NNW,18.4,25.3,N/A,Snow,Snow,340,2013-02-19 09:55:00
4:15 AM,17.6,15.8,93,29.47,1.0,NNW,12.7,19.6,N/A,Snow,Snow,340,2013-02-19 10:15:00
4:35 AM,17.6,14.0,86,29.48,1.0,NNW,20.7,25.3,N/A,Snow,Snow,330,2013-02-19 10:35:00
4:55 AM,15.8,12.2,86,29.49,1.2,NNW,18.4,31.1,N/A,Snow,Light Snow,330,2013-02-19 10:55:00
5:15 AM,14.0,14.0,100,29.50,1.0,NW,19.6,24.2,N/A,Snow,Snow,320,2013-02-19 11:15:00
5:55 AM,12.2,10.4,92,29.53,1.5,NW,17.3,25.3,N/A,Snow,Light Snow,310,2013-02-19 11:55:00
6:15 AM,12.2,8.6,85,29.54,2.5,NW,15.0,23.0,N/A,Snow,Light Snow,320,2013-02-19 12:15:00
6:35 AM,12.2,6.8,79,29.55,2.5,NW,19.6,26.5,N/A,Snow,Light Snow,320,2013-02-19 12:35:00
6:55 AM,12.2,6.8,79,29.57,2.0,NW,12.7,24.2,N/A,Snow,Light Snow,310,2013-02-19 12:55:00
7:15 AM,10.4,6.8,85,29.57,1.5,NW,16.1,23.0,N/A,Snow,Light Snow,310,2013-02-19 13:15:00
7:35 AM,10.4,5.0,79,29.59,1.2,NW,15.0,24.2,N/A,Snow,Light Snow,320,2013-02-19 13:35:00
7:55 AM,10.4,5.0,79,29.60,1.5,NW,17.3,27.6,N/A,Snow,Light Snow,310,2013-02-19 13:55:00
8:15 AM,10.4,5.0,79,29.61,2.0,NW,19.6,25.3,N/A,Snow,Light Snow,320,2013-02-19 14:15:00
8:35 AM,10.4,3.2,73,29.62,2.5,NW,15.0,20.7,N/A,,Haze,320,2013-02-19 14:35:00
8:55 AM,10.4,3.2,73,29.63,3.0,NW,17.3,25.3,N/A,,Haze,320,2013-02-19 14:55:00
9:15 AM,10.4,3.2,73,29.63,4.0,NW,17.3,25.3,N/A,,Haze,320,2013-02-19 15:15:00
10:15 AM,10.4,3.2,73,29.66,3.0,NW,19.6,27.6,N/A,,Haze,310,2013-02-19 16:15:00
10:35 AM,10.4,3.2,73,29.67,2.0,NNW,18.4,26.5,N/A,,Haze,330,2013-02-19 16:35:00
10:55 AM,10.4,3.2,73,29.67,2.0,NW,18.4,29.9,N/A,,Haze,320,2013-02-19 16:55:00
11:15 AM,10.4,1.4,67,29.69,2.0,NW,26.5,33.4,N/A,,Haze,320,2013-02-19 17:15:00
11:35 AM,10.4,3.2,73,29.70,2.5,NNW,19.6,27.6,N/A,,Haze,330,2013-02-19 17:35:00
11:55 AM,10.4,3.2,73,29.70,1.8,NW,23.0,31.1,N/A,,Haze,310,2013-02-19 17:55:00
12:15 PM,10.4,3.2,73,29.71,2.0,NW,17.3,28.8,N/A,,Haze,320,2013-02-19 18:15:00
12:35 PM,10.4,3.2,73,29.72,1.5,NW,17.3,26.5,N/A,Snow,Light Snow,310,2013-02-19 18:35:00
12:55 PM,10.4,1.4,67,29.73,1.5,WNW,20.7,26.5,N/A,,Haze,300,2013-02-19 18:55:00
1:15 PM,10.4,3.2,73,29.74,1.8,NW,19.6,25.3,N/A,,Haze,310,2013-02-19 19:15:00
1:35 PM,10.4,1.4,67,29.75,1.5,NW,19.6,26.5,N/A,,Haze,310,2013-02-19 19:35:00
1:55 PM,10.4,-0.4,62,29.76,1.8,NW,18.4,28.8,N/A,,Haze,320,2013-02-19 19:55:00
2:15 PM,8.6,-0.4,67,29.78,1.8,NW,19.6,24.2,N/A,,Haze,310,2013-02-19 20:15:00
2:35 PM,8.6,-0.4,67,29.79,1.8,NW,20.7,29.9,N/A,,Haze,310,2013-02-19 20:35:00
2:55 PM,8.6,-2.2,62,29.81,3.0,NW,24.2,32.2,N/A,,Haze,320,2013-02-19 20:55:00
3:15 PM,8.6,-2.2,62,29.82,3.0,NW,20.7,31.1,N/A,,Haze,320,2013-02-19 21:15:00
3:35 PM,6.8,-2.2,67,29.84,3.0,NW,16.1,27.6,N/A,,Haze,310,2013-02-19 21:35:00
3:55 PM,6.8,-0.4,72,29.86,3.0,NW,15.0,26.5,N/A,,Haze,320,2013-02-19 21:55:00
4:15 PM,6.8,-0.4,72,29.87,2.5,NW,20.7,25.3,N/A,,Haze,320,2013-02-19 22:15:00
4:35 PM,6.8,-0.4,72,29.88,2.5,NW,18.4,24.2,N/A,,Haze,310,2013-02-19 22:35:00
4:55 PM,5.0,-0.4,78,29.89,4.0,WNW,13.8,23.0,N/A,,Haze,290,2013-02-19 22:55:00
5:15 PM,5.0,-0.4,78,29.90,10.0,WNW,15.0,21.9,N/A,,Overcast,300,2013-02-19 23:15:00
6:35 PM,3.2,-2.2,78,29.92,7.0,WNW,9.2,-,N/A,Snow,Light Snow,290,2013-02-20 00:35:00
7:15 PM,3.2,-0.4,85,29.93,5.0,WNW,6.9,-,N/A,Snow,Light Snow,290,2013-02-20 01:15:00
7:35 PM,3.2,-0.4,85,29.94,10.0,WNW,8.1,-,N/A,Snow,Light Snow,290,2013-02-20 01:35:00
7:55 PM,6.8,1.4,79,29.94,7.0,NW,11.5,-,N/A,Snow,Light Snow,320,2013-02-20 01:55:00
8:15 PM,8.6,3.2,79,29.94,7.0,NW,13.8,18.4,N/A,Snow,Light Snow,320,2013-02-20 02:15:00
8:35 PM,8.6,3.2,79,29.95,5.0,NNW,17.3,25.3,N/A,Snow,Light Snow,330,2013-02-20 02:35:00
8:55 PM,8.6,3.2,79,29.96,5.0,NNW,16.1,25.3,N/A,,Haze,330,2013-02-20 02:55:00
9:15 PM,8.6,3.2,79,29.97,5.0,NNW,18.4,27.6,N/A,,Haze,340,2013-02-20 03:15:00
9:35 PM,8.6,1.4,73,29.98,7.0,NNW,17.3,23.0,N/A,,Mostly Cloudy,340,2013-02-20 03:35:00
9:55 PM,8.6,1.4,73,29.99,7.0,NNW,17.3,24.2,N/A,,Mostly Cloudy,330,2013-02-20 03:55:00
10:15 PM,8.6,1.4,73,30.00,10.0,NNW,15.0,21.9,N/A,,Overcast,330,2013-02-20 04:15:00
10:35 PM,8.6,1.4,73,30.01,7.0,NNW,15.0,19.6,N/A,,Overcast,330,2013-02-20 04:35:00
10:55 PM,8.6,1.4,73,30.02,7.0,NNW,9.2,23.0,N/A,Snow,Light Snow,340,2013-02-20 04:55:00
11:15 PM,8.6,1.4,73,30.03,7.0,NNW,12.7,19.6,N/A,Snow,Light Snow,330,2013-02-20 05:15:00
11:35 PM,8.6,3.2,79,30.04,4.0,NNW,12.7,16.1,N/A,Snow,Light Snow,340,2013-02-20 05:35:00
11:55 PM,8.6,3.2,79,30.04,3.0,NNW,11.5,16.1,N/A,Snow,Light Snow,340,2013-02-20 05:55:00